Regional Weather Roundup
Issued by NWS

Home | Current Version | Previous Version | Text Only | Print | Product List | Glossary On
Versions: 1 2 3 4 5 6 7 8 9 10 11 12 13 14 15 16 17 18 19 20 21 22 23 24 25 26 27 28 29 30 31 32 33 34 35 36 37 38 39 40 41 42 43 44 45 46 47 48 49 50
000
ASUS43 KLSX 080707
RWRMO

WEATHER SUMMARY FOR MISSOURI
NATIONAL WEATHER SERVICE SPRINGFIELD MO
200 AM CDT WED JUL 08 2015

NOTE: "FAIR" INDICATES FEW OR NO CLOUDS BELOW 12,000 FEET WITH NO
       SIGNIFICANT WEATHER AND/OR OBSTRUCTIONS TO VISIBILITY.
       CURRENT SKY AND/OR WEATHER CONDITIONS ARE NOT AVAILABLE FOR
       CHILLICOTHE AND FARMINGTON.

MOZ001>031-035>038-043-044-053-054-080800-
...NORTHERN AND WESTERN MISSOURI...

CITY           SKY/WX    TMP DP  RH WIND       PRES   REMARKS
KANSAS CTY INT DRIZZLE   65  60  84 E7        30.05F
KANSAS C DTWN  LGT RAIN  66  63  90 CALM      30.04F
LEE`S SUMMIT   LGT RAIN  65  63  93 SE6       30.05F FOG
ST JOSEPH      CLOUDY    65  57  75 E6        30.05F
CHILLICOTHE      N/A     67  60  78 NE3       30.06F
KIRKSVILLE     CLOUDY    64  59  83 NE5       30.07F

$$
MOZ066>068-077>081-088>096-101>105-080800-
...SOUTHWEST MISSOURI...

CITY           SKY/WX    TMP DP  RH WIND       PRES   REMARKS
SPRINGFIELD    RAIN      69  68  96 CALM      29.99F FOG
JOPLIN         LGT RAIN  66  65  96 NE5       29.99F FOG

$$
MOZ032>034-039>042-045>050-055>058-069>072-080800-
...CENTRAL MISSOURI...

CITY           SKY/WX    TMP DP  RH WIND       PRES   REMARKS
COLUMBIA       LGT RAIN  65  63  93 E7        30.04F FOG
JEFFERSON CITY LGT RAIN  65  63  93 E3        30.04F FOG
ROLLA          LGT RAIN  63  63 100 E8        30.02F FOG
SEDALIA        LGT RAIN  64  61  90 E7        30.05F FOG
WHITEMAN AFB   LGT RAIN  64  63  95 NE6       30.03F
WARRENSBURG    DRIZZLE   63  61  94 NE6       30.03F
OSAGE BEACH    CLOUDY    64  63  94 E7        30.02F

$$
MOZ051-052-059>065-080800-
...EAST CENTRAL MISSOURI...

CITY           SKY/WX    TMP DP  RH WIND       PRES   REMARKS
ST LOUIS INTL  CLOUDY    66  61  84 SE9       30.06S
SPIRIT OF STL  CLOUDY    65  63  93 E6        30.05S
ST CHARLES     CLOUDY    67  64  90 SE3       30.05S

$$
MOZ072>076-082>087-097>100-106>115-080800-
...SOUTH CENTRAL AND SOUTHEAST MISSOURI...

CITY           SKY/WX    TMP DP  RH WIND       PRES   REMARKS
CAPE GIRARDEAU CLOUDY    73  72  94 SW5       30.03S
FARMINGTON     CLOUDY    64  63  94 E6        30.09S VSB 1/2
POPLAR BLUFF   CLOUDY    73  72  96 S3        30.02S
WEST PLAINS    CLOUDY    72  70  93 S5        30.05F

$$


USA.gov is the U.S. government's official web portal to all federal, state and local government web resources and services.